Flag for India Weather past 2 weeks in Kapurthala, Punjab, India

Now
79 °F

Drizzle. More clouds than sun.


Feels Like: 82 °F
Forecast: 75 / 87 °F
Wind: 15 mph from Northeast

Location: Amritsar Airport

Current Time: Sep 2, 2014 at 3:42:10 PM

Latest Report: Sep 2, 2014 at 2:30 PM


Visibility: 2 mi

Pressure: 29.74 "Hg

Humidity: 89%

Dew point: 75 °F

Location of KapurthalaLocation

Historic Weather in Kapurthala — Graph

°F

Kapurthala temperature yesterday

Maximum temperature yesterday: 81 °F (at 12:00 AM)
Minimum temperature yesterday: 75 °F (at 9:00 AM)
Average temperature yesterday: 78 °F

Past Weeks' High & Low Weather Summary

 TemperatureHumidityPressure
High99 °F (Aug 25, 2:00 PM)100% (Aug 19, 1:30 AM)29.80 "Hg (Aug 19, 1:30 AM)
Low73 °F (Aug 27, 5:30 AM)34% (Aug 26, 2:30 PM)29.53 "Hg (Aug 27, 6:00 PM)
Average85 °F75%29.66 "Hg
* Reported Aug 18 1:30 PM — Sep 2 2:00 PM, Kapurthala, Weather by CustomWeather, © 2014

Note: Actual official high and low records may vary slightly from our data, if they occured in-between our weather recording intervals... More about our weather records

Advertising

Kapurthala weather history for previous 24 hours

 ConditionsComfort  
Time TempWeatherWind HumidityBarometerVisibility
2:00 PM
Sep 2
79 °FRain. More clouds than sun.14 mph89%29.74 "Hg2 mi
1:30 PM81 °FFog.12 mph89%29.77 "Hg2 mi
12:30 PM79 °FDrizzle. More clouds than sun.10 mph94%29.77 "Hg2 mi
12:00 PM79 °FDrizzle. More clouds than sun.8 mph94%29.77 "Hg2 mi
11:00 AM79 °FFog.2 mph100%29.77 "Hg2 mi
10:30 AM77 °FLight rain. More clouds than sun.5 mph100%29.77 "Hg2 mi
9:30 AM79 °FFog.No wind94%29.77 "Hg2 mi
9:00 AM77 °FFog.No wind100%29.77 "Hg2 mi
8:30 AM77 °FFog.No wind100%29.74 "Hg2 mi
8:00 AM77 °FThunderstorms. More clouds than sun.No wind100%29.74 "Hg2 mi
7:30 AM77 °FThunderstorms. More clouds than sun.2 mph100%29.74 "Hg2 mi
7:00 AM77 °FThunderstorms. More clouds than sun.No wind100%29.71 "Hg2 mi
6:00 AM75 °FThunderstorms. Mostly cloudy.No wind100%29.71 "Hg1 mi
5:30 AM75 °FThunderstorms. Mostly cloudy.No wind100%29.71 "Hg1 mi
3:00 AM75 °FFog.3 mph100%29.65 "Hg2 mi
2:30 AM75 °FLight rain. Mostly cloudy.3 mph100%29.68 "Hg2 mi
1:30 AM75 °FFog.No wind94%29.68 "Hg2 mi
1:00 AM75 °FFog.2 mph94%29.68 "Hg2 mi
12:30 AM75 °FFog.2 mph94%29.68 "Hg2 mi
12:00 AM75 °FFog.3 mph100%29.68 "Hg2 mi
11:30 PM
Sep 1
75 °FFog.3 mph100%29.68 "Hg2 mi
11:00 PM75 °FFog.6 mph100%29.68 "Hg2 mi
10:30 PM77 °FFog.6 mph94%29.68 "Hg2 mi
10:00 PM79 °FFog.No wind89%29.65 "Hg2 mi
9:30 PM77 °FFog.No wind94%29.65 "Hg2 mi
9:00 PM77 °FFog.No wind94%29.65 "Hg2 mi
8:30 PM77 °FFog.No wind94%29.65 "Hg2 mi
8:00 PM77 °FFog.No wind94%29.62 "Hg2 mi
7:00 PM77 °FFog.No wind94%29.62 "Hg3 mi
6:30 PM77 °FFog.3 mph89%29.62 "Hg3 mi
6:00 PM79 °FFog.9 mph84%29.62 "Hg3 mi
5:30 PM79 °FFog.10 mph89%29.65 "Hg3 mi
5:00 PM79 °FFog.12 mph89%29.65 "Hg3 mi
3:30 PM77 °FFog.14 mph94%29.68 "Hg3 mi
3:00 PM77 °FFog.10 mph100%29.68 "Hg3 mi
Weather by CustomWeather, © 2014

See weather overviewHow to use our weather pages